User: anonymous
Location: Stamford Observatory
(41.1241°N, 73.5498°W)
Time: 19:56:24
(UTC-04:00)
Language:

IRS-P3 - Orbit

View from above orbital plane
View from above orbital plane
View from above satellite
View from above satellite

Ground track
Ground track

The orbit data is extracted from the following two-line orbital elements,

1 23827U 96017A   14272.81945716  .00000249  00000-0  13175-3 0  1180
2 23827 098.6299 209.7184 0003912 043.2634 341.3908 14.22230474961479
Epoch (UTC): 29 September 2014 19:40:01
Eccentricity: 0.0003912
inclination: 98.6299°
perigee height: 815 km
apogee height: 820 km
right ascension of ascending node: 209.7184°
argument of perigee: 43.2634°
revolutions per day: 14.22230474
mean anomaly at epoch: 341.3908°
orbit number at epoch: 96147

The dashed part of the orbit path shows where the satellite is in the earth's shadow,  

DLR